Weather in Zhuravlevo

Russia / Krasnoyarsk Krai     54°09′39″N   93°15′08″E
temp.,
°C
wind,
m/s
gust,
m/s
humid.,
%
clouds,
%
prec.,
mm/h
press.,
hPa
HPBL,
m
17 june, thu
thu1701:00+10ene119799 0.0 101712
04:00+10ene119397 0.0 101622
07:00+12e1285100 0.0 1016135
10:00+17se2360100 0.0 1014645
13:00+21sse2251100 0.0 10131239
16:00+22se224999 0.0 10111467
19:00+20ese24646 0.0 1010377
22:00+13ne11883 0.0 101011
18 june, fri
fri1801:00+11ne21940 0.0 101013
04:00+11ene119687 0.8 101011
07:00+13se129299 0.9 1010130
10:00+18s127398 0.2 1009450
13:00+21sw3470100 0.9 1007817
16:00+23w3452100 0.1 10061318
19:00+21sw127171 0.1 1005287
22:00+15nne1193100 1.0 100511
19 june, sat
sat1901:00+14ne229877 4.6 100552
04:00+13e119721 1.5 100511
07:00+16ese119567 1.5 1004165
10:00+22s12645 0.0 1004687
13:00+26sw22480 0.0 10021605
16:00+27wsw21420 0.0 10001926
19:00+25wsw11650 0.0 100015
22:00+17n1183100 0.0 100111
20 june, sun
sun2001:00+14ne118898 0.0 100110
04:00+13e1195100 0.0 100210
07:00+16sse1184100 0.0 1002170
10:00+21sw2265100 0.0 1002683
13:00+24wsw2254100 0.0 10021133
16:00+25w425722 0.4 10021518
19:00+20nnw259222 3.1 1003215
22:00+14nw2598100 1.6 1006224
21 june, mon
mon2101:00+10wnw2499100 9.1 1009309
04:00+7nw41098100 4.9 1012560
07:00+7wnw1497100 11.4 1015426
10:00+9sse1187100 4.1 1015698
13:00+10sse128967 4.6 1015578
16:00+15ese115798 0.1 10121376
19:00+14ene22600 0.1 1011949
22:00+8ne22861 0.0 101128